Kuchera_Ratio
4.5 4.6 5.7 5.5 4.2 3.7 3.8 3.1 3.0 9.5 8.9 6.6 5.5 3.0 2.3 1.0 1.3 0.0 1.3 1.8 0.0 0.0 0.0 0.0 0.0 0.0 0.0 0.0 0.0 0.0 0.0 0.0 0.0 0.0 0.0 0.0 0.0 0.0
6.1 6.6 7.0 6.9 6.7 5.7 5.7 6.1 6.3 7.0 9.2 6.0 6.0 4.6 3.5 2.0 1.7 1.0 1.8 2.8 2.3 0.0 0.0 0.0 0.0 0.0 0.0 0.0 0.0 0.0 0.0 0.0 0.0 0.0 0.0 0.0 0.0 0.0
7.5 7.5 9.0 7.9 8.5 8.1 7.7 8.2 8.7 7.6 10.6 8.2 7.0 5.6 7.2 5.8 4.0 3.4 3.5 2.6 1.7 2.4 0.0 0.0 0.0 0.0 0.0 0.0 0.0 0.0 0.0 0.0 0.0 0.0 0.0 0.0 0.0 0.0
10.3 10.0 10.7 8.7 10.6 10.3 9.9 10.2 9.6 9.9 10.6 12.7 9.5 9.1 9.2 6.7 6.5 6.7 5.1 2.5 2.1 2.5 1.0 0.0 0.0 0.0 0.0 0.0 0.0 0.0 0.0 0.0 0.0 0.0 0.0 0.0 0.0 0.0
11.6 11.9 11.8 11.2 11.8 11.5 11.8 12.0 11.5 10.2 11.4 12.5 12.3 9.8 9.5 8.2 8.5 7.5 7.3 5.3 4.0 3.7 1.8 0.8 0.0 0.0 0.0 0.0 0.0 0.0 0.0 0.0 0.0 0.0 0.0 0.0 0.0 0.0
12.0 12.0 12.0 12.1 12.3 12.2 12.1 12.0 11.8 12.5 12.3 12.8 12.9 12.6 12.0 9.4 10.1 11.8 10.2 6.0 6.3 3.4 3.1 2.8 1.9 0.8 0.0 0.0 0.0 0.0 0.0 0.0 0.0 0.0 0.0 0.0 0.0 0.0
12.2 11.9 11.7 11.0 9.9 10.5 12.3 13.1 13.3 13.7 13.3 13.5 13.6 13.0 12.8 12.6 12.9 9.6 11.2 9.2 7.8 6.4 6.1 4.6 4.0 3.3 2.9 2.7 2.2 1.6 1.1 0.4 0.0 0.0 0.0 0.0 0.0 0.0
13.1 12.7 11.0 8.9 8.3 6.2 5.4 4.9 10.2 14.3 14.7 13.7 13.4 14.0 13.1 12.2 10.9 11.9 12.2 12.7 13.8 4.4 8.2 7.7 4.1 5.2 3.5 2.3 2.5 2.3 1.1 0.2 0.0 0.0 0.0 0.0 0.0 0.0
13.6 13.0 12.6 11.0 10.4 11.1 9.7 6.9 5.4 3.9 6.1 13.6 14.8 14.2 14.1 12.6 12.1 12.7 12.7 12.8 12.8 8.4 9.3 12.1 5.9 7.9 3.9 3.0 3.0 2.4 1.8 1.1 0.4 0.0 0.0 0.0 0.0 0.0
12.9 12.5 12.7 12.3 10.9 11.5 12.1 12.3 12.0 10.8 9.6 8.5 9.0 10.9 11.4 10.4 10.9 11.2 12.1 12.0 10.3 8.7 7.9 13.9 8.6 9.9 5.5 4.2 4.2 3.6 2.6 1.7 0.9 0.3 0.0 0.0 0.0 0.0
13.2 12.5 12.2 12.3 10.8 9.3 12.1 13.0 12.6 12.4 8.8 7.0 6.5 6.6 7.0 7.0 7.5 12.2 14.4 15.0 15.6 13.9 9.5 12.9 12.1 11.5 8.5 7.3 4.5 3.9 3.6 2.8 1.9 1.1 0.3 0.0 0.0 0.0
13.9 13.3 11.6 11.0 9.9 9.2 12.2 13.0 14.4 13.0 12.1 11.9 11.1 8.6 6.3 5.8 4.7 6.3 12.1 15.9 15.4 15.2 10.4 13.3 12.5 12.0 14.0 8.0 6.7 5.4 5.0 4.3 3.5 2.7 1.9 1.4 1.0 1.8
15.4 14.7 13.4 11.9 10.4 9.3 8.7 11.8 12.9 10.8 11.4 11.6 12.4 12.5 11.8 11.3 10.2 9.1 8.3 10.2 13.3 13.6 8.7 9.9 12.8 12.6 13.4 13.7 10.9 7.9 7.1 6.6 5.5 4.6 4.2 3.5 2.9 3.5
16.1 14.6 14.0 12.4 11.4 10.5 10.3 9.5 8.0 7.7 10.2 13.4 14.3 13.3 13.3 12.8 12.0 10.7 9.8 9.3 8.4 10.4 7.9 8.7 13.6 13.4 14.4 15.0 14.9 10.9 8.8 7.0 6.8 8.5 7.3 5.9 5.7 5.2
13.7 13.9 12.7 12.1 11.3 11.3 9.7 9.1 8.8 12.1 13.3 14.1 14.3 14.1 13.0 11.8 10.9 12.1 11.2 10.4 10.6 9.9 8.8 9.8 12.6 12.8 13.3 15.1 15.1 13.7 13.8 12.6 9.8 10.8 10.2 10.2 9.8 8.6
15.4 15.7 14.9 13.9 13.1 12.9 13.9 14.8 14.2 14.1 13.5 14.2 14.1 12.5 12.0 13.3 13.4 12.7 13.8 13.5 14.3 14.0 11.4 10.2 11.0 12.1 14.0 13.6 13.8 14.7 13.4 15.5 12.9 12.5 12.1 11.9 10.5 9.3
17.0 18.3 19.0 18.8 18.6 17.5 16.4 15.6 15.0 15.5 16.4 15.3 15.0 14.3 13.9 13.7 14.1 13.6 14.1 14.8 16.4 16.2 15.3 13.6 12.1 11.8 12.3 13.3 16.0 15.2 15.3 15.3 13.8 13.8 14.0 14.7 13.2 12.2
16.4 18.4 19.3 19.0 18.9 18.5 18.2 17.5 16.3 15.6 15.1 15.9 16.2 16.6 16.4 16.0 16.1 15.9 15.6 16.5 17.2 16.6 16.2 15.2 15.4 16.1 16.3 15.3 13.6 16.5 15.8 16.1 15.1 14.7 14.5 16.4 16.2 13.7
19.9 20.7 21.0 19.3 19.0 18.8 18.4 18.1 17.9 16.5 15.6 16.4 16.3 16.5 16.7 16.9 16.9 17.4 16.9 16.8 17.2 16.7 16.3 16.0 17.3 18.3 20.7 21.7 16.5 13.1 16.8 16.4 16.1 16.7 16.0 16.5 17.4 15.6
21.4 22.4 22.9 22.2 21.0 20.3 19.1 18.8 18.0 17.5 17.4 17.3 17.3 17.1 17.1 17.2 17.7 17.7 17.1 17.4 17.5 17.4 18.3 18.2 18.8 18.9 20.8 21.0 20.6 17.6 14.4 17.1 17.7 18.4 18.2 16.7 15.7 13.9
23.9 24.0 23.6 23.2 22.6 22.3 20.9 20.2 19.4 18.6 18.3 18.4 18.1 18.0 17.7 17.7 18.2 17.7 17.8 16.6 17.9 19.7 21.1 20.5 18.6 15.9 17.6 18.2 21.8 21.2 18.4 15.1 15.3 17.8 18.2 19.2 19.9 19.0
24.7 24.7 24.0 24.1 24.2 23.9 23.6 23.3 22.4 21.2 19.8 19.0 18.6 18.3 17.9 17.9 18.6 19.5 19.8 20.6 20.9 20.9 21.0 20.0 19.3 19.7 20.8 22.1 23.4 22.6 21.4 19.2 16.7 15.8 15.3 15.9 19.2 21.6
24.2 24.3 24.3 24.2 24.0 24.2 24.4 24.4 24.8 24.1 23.8 23.2 22.1 20.9 20.1 20.8 20.4 20.6 21.4 21.9 22.2 22.5 22.3 22.7 21.8 21.5 22.8 23.0 22.5 23.0 22.8 22.2 20.8 20.6 19.3 15.5 14.8 14.4